CZ-3B DEB, 40187

Orbit data source: Space-Track

CZ-3B DEB, 40187 is space debris in HEO originally from a launch on Mon, 19 Dec 2011 UTC launched from the Xichang Space Center, China (XSC). Debris objects in space refer to the collection of defunct objects orbiting the Earth. Examples of debris include non-operational satellites, rocket bodies, and fragments generated from explosions, collisions, or faulty payload assembly.

Loading next visibility...
Identifier
40187, 2011-077L
Orbit
HEO
Country
Flag of CNCN / PRC
Related business
Manufacturer
CALT
Mission
Spacecraft
Bus & Motor
Unknown
Mass
Unknown
Launch date (UTC)
2011-12-19 (14 years ago)
Launch vehicle
Unknown
Launch site
Xichang Space Center, China (XSC)
Object type
Payload
Rocket body
Debris
Shape & HBR
Unknown shape, 0.4 m
Radar Cross Section
Medium (>0.1 m² and <1 m²)

Expand to show TLE details & history
Last TLE update: 1 day ago

TLE from 1 day ago
0 CZ-3B DEB
1 40187U 11077L   26033.33292686 -.00000161  00000-0  85667-2 0  9992
2 40187  26.5332  29.7632 7386614 339.7745   1.8413  1.90989980 92039
Epoch: 2026-02-02T07:59Z
TLE epoch observation values (Epoch: 2026-02-02T07:59:24.880Z)
Latitude
0.00074°
Longitude
137.41221°
Altitude
1,004.231 km
Speed
9.667 km/s
True Right ascension
01h 59m 10s
True Declination
0° 00' 03"
Sunlit
Object was in daylight at epoch
Visualization orbit readout
Latitude
Unknown
Longitude
Unknown
Altitude
Unknown
Speed
Unknown
Apparent Right ascension
Unknown
Apparent Declination
Unknown
Sunlit
N/A
Visualization observer readout
Local Sidereal Time
17:02:28
Azimuth
Unknown
Elevation
Unknown
Doppler factor
Unknown
Orbital elements
Apogee altitude
41,338.318 km
Perigee altitude
794.135 km
Semi-major axis
27,444.363 km
Eccentricity
0.73866
Inclination
26.5332°
RAAN
29.7632°
Arg. of periapsis
339.7745°
True anomaly
17.92124°
Mean anomaly
1.8413°
Eccentric anomaly
6.99654°
Mean motion
0.47738 °/min
Orbital period
754.12 mins
BSTAR
0.0085667
Loading maneuver chart data...
Computing Atmospheric mass density...
Loading historical data...
Loading historical data...
Loading historical data...
Loading historical data...
Loading historical data...
Loading historical data...
Loading historical data...

Documentation

Showing up to 5 results
|